Content
SEND FEEDBACK

Daily
Averages
Monthly
Summary
United States of America

AGANA, GUAM


Home > North America > United States > Guam
Elevation: 246 feet     Latitude: 13 29N     Longitude: 144 48E

WEATHER
 
SELECT A DAY
Number of Records: 213,786;   Date Range: 1/1/95 - 10/20/14
 
SHARE

PRINT THIS DATA

[ ← Previous Day ]
WEATHER ALMANAC - JULY 20, 2014
[ Next Day → ]
[ °C ]   °F
Weather ElementAverageHighLow
Temperature81.8 °F89.1 °F (11:54 am)77 °F (1:54 am)
Dewpoint75.6 °F78.1 °F (11:54 pm)73.9 °F (1:54 am)
Humidity81.9 %94 % (2:54 am)65 % (12:54 pm)
Barometer29.82 in29.85 in (1:19 am)29.79 in (4:54 am)
Wind Speed5.8 mph12.7 mph (12:54 am)
Weather ElementAverage
Visibility9.4 mi
Wind DirectionENE (62.8 °)

Weather ElementTotal
Precipitation0.25 in
Cooling Degree Days18.1 (Base 65)
Growing Degree Days33.1 (Base 50)
Averaged from 25 records on July 20, 2014
WEATHER CONDITIONS BREAKOUT
WIND DIRECTION BREAKOUT
WEATHER BY HOUR - JULY 20, 2014
[ °C ]   °F
Local TimeTemperatureDewpointHumidityBarometerVisibilityWind DirectionWind SpeedGust SpeedPrecipitationEventsConditions
12:54 AM79.0 °F75.0 °F88 %29.84 in10.0 miEast (90°)12.7 mphMostly Cloudy
1:19 AM78.8 °F75.2 °F89 %29.85 in4.0 miENE (60°)8.1 mph0.05 inRainRain
1:54 AM77.0 °F73.9 °F90 %29.81 in4.0 miESE (110°)3.5 mph0.09 inRainLight Rain
2:54 AM77.0 °F75.0 °F94 %29.80 in10.0 miCalmClear
3:54 AM77.0 °F75.0 °F94 %29.80 in10.0 miCalmClear
4:54 AM77.0 °F75.0 °F94 %29.79 in10.0 miCalmClear
5:54 AM78.1 °F75.0 °F90 %29.81 in10.0 miCalmClear
6:54 AM80.1 °F75.0 °F85 %29.83 in10.0 miENE (70°)5.8 mphClear
7:54 AM82.0 °F77.0 °F85 %29.84 in10.0 miENE (60°)5.8 mphClear
8:54 AM84.0 °F77.0 °F79 %29.85 in10.0 miNE (50°)5.8 mphPartly Cloudy
9:54 AM84.9 °F77.0 °F77 %29.83 in10.0 miNNE (20°)9.2 mphClear
10:54 AM86.0 °F77.0 °F74 %29.84 in10.0 miNorth (360°)10.4 mphScattered Clouds
11:54 AM89.1 °F77.0 °F67 %29.83 in10.0 miNNE (30°)8.1 mphScattered Clouds
12:54 PM88.0 °F75.0 °F65 %29.81 in10.0 miNE (40°)10.4 mphMostly Cloudy
1:54 PM87.1 °F73.9 °F65 %29.81 in10.0 miENE (60°)11.5 mph0.00 inRainLight Rain
2:54 PM84.0 °F77.0 °F79 %29.80 in10.0 miENE (60°)8.1 mph0.00 inRainLight Rain
3:54 PM84.0 °F75.9 °F76 %29.79 in10.0 miNE (40°)6.9 mph0.01 inRainLight Rain
4:54 PM84.0 °F73.9 °F72 %29.80 in10.0 miNE (50°)6.9 mph0.00 inScattered Clouds
5:54 PM82.9 °F75.9 °F79 %29.80 in10.0 miCalmPartly Cloudy
6:54 PM81.0 °F75.9 °F85 %29.81 in10.0 miCalmPartly Cloudy
7:54 PM82.0 °F75.0 °F79 %29.82 in10.0 miNNE (20°)5.8 mphPartly Cloudy
8:54 PM81.0 °F73.9 °F79 %29.82 in10.0 miNNE (30°)5.8 mphClear
9:54 PM82.0 °F75.0 °F79 %29.84 in10.0 miNE (40°)8.1 mph0.00 inRainLight Rain
10:54 PM80.1 °F77.0 °F90 %29.83 in10.0 miNNE (30°)5.8 mph0.01 inRainLight Rain
11:54 PM80.1 °F78.1 °F94 %29.82 in7.0 miNorth (350°)5.8 mph0.09 inRainRain
Hourly data recorded from PGUM, located miles away from Agana, Guam







STORIES FROM OUR PARTNERS